When you browse on this site, cookies collect data to enhance your experience and personalize the content and advertising you see.
Visit our Privacy Policy to learn more. By continuing to use the site, you agree to this use of cookies and data.
  • în România
  • Lista ţărilor
  • Pe 7 zile
  • Temperatura apei
  • Hartă satelitară
  • Meteo pe hartă
  • Widget-uri
  • user-avatar
    Intrare

    Meteo pe oră la Connaught

    Astăzi, 21 Ianuarie, Luni

    Timp Temperatura Precipitaţii Vânt Presiune Umiditate
    00:00 +1°C° 0 mm 2 m/s 753 mmHg 85%
    01:00 +1°C° 0 mm 2 m/s 752 mmHg 85%
    02:00 +1°C° 0 mm 2 m/s 752 mmHg 86%
    03:00 0°C° 0 mm 3 m/s 751 mmHg 86%
    04:00 -1°C° 0 mm 4 m/s 750 mmHg 87%
    05:00 0°C° 0 mm 4 m/s 750 mmHg 87%
    06:00 0°C° 0 mm 5 m/s 749 mmHg 86%
    07:00 +1°C° 0 mm 5 m/s 748 mmHg 85%
    08:00 +2°C° 0 mm 6 m/s 747 mmHg 84%
    09:00 +2°C° 0.2 mm 7 m/s 745 mmHg 83%
    10:00 +3°C° 0.2 mm 7 m/s 744 mmHg 83%
    11:00 +2°C° 0.2 mm 8 m/s 742 mmHg 83%
    12:00 +2°C° 2 mm 8 m/s 741 mmHg 84%
    13:00 +2°C° 2 mm 8 m/s 740 mmHg 86%
    14:00 +1°C° 2 mm 8 m/s 739 mmHg 88%
    15:00 +1°C° 0.3 mm 6 m/s 739 mmHg 85%
    16:00 0°C° 0.3 mm 5 m/s 739 mmHg 82%
    17:00 0°C° 0.3 mm 3 m/s 738 mmHg 80%
    18:00 -1°C° 0.2 mm 4 m/s 738 mmHg 81%
    19:00 0°C° 0.2 mm 5 m/s 738 mmHg 82%
    20:00 0°C° 0.2 mm 5 m/s 739 mmHg 83%
    21:00 -1°C° 0.2 mm 5 m/s 738 mmHg 83%
    22:00 -1°C° 0.2 mm 4 m/s 738 mmHg 82%
    23:00 -2°C° 0.2 mm 4 m/s 738 mmHg 82%

    Mâine, 22 Ianuarie, Marţi

    Timp Temperatura Precipitaţii Vânt Presiune Umiditate
    00:00 -2°C° 0.2 mm 4 m/s 738 mmHg 83%
    01:00 -2°C° 0.2 mm 4 m/s 737 mmHg 85%
    02:00 -1°C° 0.2 mm 4 m/s 737 mmHg 86%
    03:00 -1°C° 0.2 mm 4 m/s 737 mmHg 86%
    04:00 -1°C° 0.2 mm 4 m/s 736 mmHg 86%
    05:00 -1°C° 0.2 mm 4 m/s 736 mmHg 85%
    06:00 -1°C° 0.1 mm 4 m/s 737 mmHg 85%
    07:00 -2°C° 0.1 mm 4 m/s 737 mmHg 85%
    08:00 -2°C° 0.1 mm 4 m/s 737 mmHg 84%
    09:00 -1°C° 0.2 mm 4 m/s 737 mmHg 83%
    10:00 -1°C° 0.2 mm 5 m/s 737 mmHg 81%
    11:00 0°C° 0.2 mm 5 m/s 737 mmHg 80%
    12:00 0°C° 0.1 mm 5 m/s 737 mmHg 81%
    13:00 0°C° 0.1 mm 4 m/s 737 mmHg 82%
    14:00 0°C° 0.1 mm 4 m/s 737 mmHg 82%
    15:00 0°C° 0 mm 4 m/s 737 mmHg 84%
    16:00 0°C° 0 mm 3 m/s 737 mmHg 86%
    17:00 0°C° 0 mm 3 m/s 737 mmHg 88%
    18:00 0°C° 0.1 mm 3 m/s 738 mmHg 88%
    19:00 +1°C° 0.1 mm 2 m/s 738 mmHg 89%
    20:00 +1°C° 0.1 mm 2 m/s 738 mmHg 90%
    21:00 +1°C° 0 mm 2 m/s 738 mmHg 90%
    22:00 +1°C° 0 mm 2 m/s 739 mmHg 90%
    23:00 +1°C° 0 mm 3 m/s 739 mmHg 90%

    Poimâine, 23 Ianuarie, Miercuri

    Timp Temperatura Precipitaţii Vânt Presiune Umiditate
    00:00 +2°C° 0 mm 2 m/s 739 mmHg 91%
    01:00 +2°C° 0 mm 2 m/s 739 mmHg 92%
    02:00 +2°C° 0 mm 2 m/s 739 mmHg 93%
    03:00 +2°C° 0.1 mm 2 m/s 740 mmHg 94%
    04:00 +2°C° 0.1 mm 2 m/s 740 mmHg 94%
    05:00 +2°C° 0.1 mm 2 m/s 740 mmHg 94%
    06:00 +3°C° 0.1 mm 1 m/s 740 mmHg 94%
    07:00 +3°C° 0.1 mm 1 m/s 741 mmHg 94%
    08:00 +3°C° 0.1 mm 1 m/s 741 mmHg 93%
    09:00 +4°C° 0.1 mm 1 m/s 741 mmHg 93%
    10:00 +4°C° 0.1 mm 1 m/s 742 mmHg 93%
    11:00 +5°C° 0.1 mm 1 m/s 742 mmHg 93%
    12:00 +5°C° 0 mm 1 m/s 742 mmHg 93%
    13:00 +5°C° 0 mm 2 m/s 742 mmHg 93%
    14:00 +5°C° 0 mm 2 m/s 742 mmHg 92%
    15:00 +4°C° 0 mm 2 m/s 743 mmHg 94%
    16:00 +4°C° 0 mm 1 m/s 743 mmHg 95%
    17:00 +4°C° 0 mm 1 m/s 743 mmHg 96%
    18:00 +4°C° 0.1 mm 1 m/s 743 mmHg 96%
    19:00 +3°C° 0.1 mm 2 m/s 744 mmHg 97%
    20:00 +4°C° 0.1 mm 2 m/s 744 mmHg 97%
    21:00 +4°C° 0.5 mm 2 m/s 744 mmHg 98%
    22:00 +5°C° 0.5 mm 2 m/s 744 mmHg 98%
    23:00 +4°C° 0.5 mm 3 m/s 744 mmHg 98%

    24 Ianuarie, Joi

    Timp Temperatura Precipitaţii Vânt Presiune Umiditate
    00:00 +5°C° 0.2 mm 3 m/s 744 mmHg 98%
    01:00 +7°C° 0.2 mm 2 m/s 744 mmHg 98%
    02:00 +7°C° 0.2 mm 2 m/s 744 mmHg 98%
    03:00 +8°C° 0.4 mm 3 m/s 744 mmHg 97%
    04:00 +7°C° 0.4 mm 4 m/s 744 mmHg 97%
    05:00 +8°C° 0.4 mm 5 m/s 744 mmHg 96%
    06:00 +8°C° 0 mm 5 m/s 745 mmHg 96%
    07:00 +8°C° 0 mm 5 m/s 745 mmHg 95%
    08:00 +8°C° 0 mm 4 m/s 745 mmHg 95%
    09:00 +8°C° 0 mm 4 m/s 746 mmHg 94%
    10:00 +8°C° 0 mm 4 m/s 746 mmHg 93%
    11:00 +8°C° 0 mm 4 m/s 747 mmHg 92%
    12:00 +8°C° 0 mm 4 m/s 747 mmHg 92%
    13:00 +8°C° 0 mm 4 m/s 747 mmHg 91%
    14:00 +8°C° 0 mm 4 m/s 747 mmHg 91%
    15:00 +8°C° 0 mm 4 m/s 747 mmHg 91%
    16:00 +7°C° 0 mm 4 m/s 747 mmHg 91%
    17:00 +8°C° 0 mm 3 m/s 747 mmHg 91%
    18:00 +8°C° 0 mm 3 m/s 747 mmHg 91%
    19:00 +8°C° 0 mm 3 m/s 747 mmHg 91%
    20:00 +7°C° 0 mm 4 m/s 747 mmHg 92%
    21:00 +7°C° 0 mm 4 m/s 747 mmHg 91%
    22:00 +7°C° 0 mm 4 m/s 747 mmHg 91%
    23:00 +7°C° 0 mm 4 m/s 747 mmHg 91%

    25 Ianuarie, Vineri

    Timp Temperatura Precipitaţii Vânt Presiune Umiditate
    00:00 +7°C° 0 mm 5 m/s 747 mmHg 91%
    01:00 +7°C° 0 mm 5 m/s 747 mmHg 91%
    02:00 +7°C° 0 mm 5 m/s 747 mmHg 92%
    03:00 +7°C° 0 mm 5 m/s 746 mmHg 92%
    04:00 +7°C° 0 mm 5 m/s 746 mmHg 92%
    05:00 +7°C° 0 mm 5 m/s 746 mmHg 92%
    06:00 +7°C° 0.1 mm 5 m/s 746 mmHg 92%
    07:00 +8°C° 0.1 mm 5 m/s 746 mmHg 93%
    08:00 +8°C° 0.1 mm 5 m/s 746 mmHg 93%
    09:00 +8°C° 0.5 mm 5 m/s 746 mmHg 93%
    10:00 +8°C° 0.5 mm 5 m/s 746 mmHg 94%
    11:00 +8°C° 0.5 mm 5 m/s 746 mmHg 94%
    12:00 +7°C° 0.4 mm 4 m/s 745 mmHg 94%
    13:00 +8°C° 0.4 mm 3 m/s 745 mmHg 93%
    14:00 +7°C° 0.4 mm 2 m/s 745 mmHg 93%
    15:00 +6°C° 0.1 mm 2 m/s 745 mmHg 93%
    16:00 +7°C° 0.1 mm 1 m/s 745 mmHg 93%
    17:00 +7°C° 0.1 mm 1 m/s 744 mmHg 94%
    18:00 +7°C° 0.7 mm 1 m/s 744 mmHg 94%
    19:00 +6°C° 0.7 mm 1 m/s 743 mmHg 94%
    20:00 +6°C° 0.7 mm 1 m/s 743 mmHg 95%
    21:00 +4°C° 2.6 mm 2 m/s 742 mmHg 95%
    22:00 +3°C° 2.6 mm 3 m/s 741 mmHg 95%
    23:00 +3°C° 2.6 mm 3 m/s 740 mmHg 95%

    26 Ianuarie, Sâmbătă

    Timp Temperatura Precipitaţii Vânt Presiune Umiditate
    00:00 +3°C° 2.7 mm 4 m/s 739 mmHg 94%
    01:00 +1°C° 2.7 mm 5 m/s 738 mmHg 94%
    02:00 +1°C° 2.7 mm 6 m/s 738 mmHg 93%
    03:00 0°C° 2.4 mm 7 m/s 738 mmHg 91%
    04:00 0°C° 2.4 mm 7 m/s 737 mmHg 89%
    05:00 +1°C° 2.4 mm 8 m/s 737 mmHg 87%
    06:00 0°C° 0.1 mm 7 m/s 738 mmHg 85%
    07:00 0°C° 0.1 mm 7 m/s 740 mmHg 82%
    08:00 +1°C° 0.1 mm 6 m/s 741 mmHg 80%
    09:00 +2°C° 0.1 mm 7 m/s 741 mmHg 77%
    10:00 +2°C° 0.1 mm 7 m/s 742 mmHg 74%
    11:00 +2°C° 0.1 mm 8 m/s 742 mmHg 71%
    12:00 +2°C° 0.2 mm 7 m/s 742 mmHg 71%
    13:00 +2°C° 0.2 mm 7 m/s 742 mmHg 71%
    14:00 +2°C° 0.2 mm 7 m/s 742 mmHg 71%
    15:00 +1°C° 0.1 mm 6 m/s 742 mmHg 73%
    16:00 +1°C° 0.1 mm 6 m/s 742 mmHg 75%
    17:00 0°C° 0.1 mm 5 m/s 743 mmHg 76%
    18:00 0°C° 0 mm 5 m/s 743 mmHg 77%
    19:00 0°C° 0 mm 5 m/s 743 mmHg 78%
    20:00 0°C° 0 mm 5 m/s 743 mmHg 80%
    21:00 0°C° 0.1 mm 5 m/s 742 mmHg 80%
    22:00 0°C° 0.1 mm 5 m/s 742 mmHg 80%
    23:00 +1°C° 0.1 mm 5 m/s 742 mmHg 80%
    Arată mai mult